GS0511 Weather Reports


time (UTC)temp
F
wind
direction
speed
knots
gust
knots
rain 1hr
in
rain 24hr
in
rain mn
in
humidity
%
barometer
mb
20260506061458 47 33 1.7 4.3 0.17 0.63 0.33 96 1010.0
20260506044458 48 103 0.0 1.7 0.10 0.39 0.09 96 1010.3
20260506042958 49 103 0.0 2.6 0.08 0.35 0.05 96 1010.1
20260506041459 48 103 0.9 2.6 0.07 0.32 0.02 96 1010.1
20260506040007 48 103 0.0 1.7 0.06 0.30 0.00 96 1010.3
20260506034501 48 103 0.9 2.6 0.05 0.29 0.29 96 1010.5
20260506033004 48 103 0.9 2.6 0.03 0.27 0.27 96 1010.7
20260506031501 48 103 0.9 2.6 0.01 0.25 0.25 96 1010.8
20260506030005 48 103 0.9 2.6 0.00 0.24 0.24 96 1010.9
20260506024502 48 90 0.0 0.0 0.01 0.24 0.24 96 1010.9
20260506021502 48 137 0.0 1.7 0.04 0.24 0.24 95 1011.0
20260506020005 48 137 0.0 1.7 0.05 0.24 0.24 95 1010.9
20260506014501 48 137 0.0 0.0 0.04 0.23 0.23 95 1011.0
20260506011501 48 137 0.0 0.9 0.04 0.20 0.20 95 1011.0
20260506004501 48 137 0.0 0.0 0.04 0.19 0.19 94 1010.2
20260506003001 48 137 0.9 1.7 0.04 0.18 0.18 94 1010.2
20260506001501 48 137 0.0 0.9 0.03 0.16 0.16 93 1010.1
20260505231501 48 306 0.9 2.6 0.04 0.13 0.13 91 1010.0
20260505230004 49 289 0.9 2.6 0.04 0.12 0.12 90 1009.8
20260505224500 49 290 1.7 3.5 0.06 0.11 0.11 89 1009.5
20260505220006 52 343 3.5 7.8 0.06 0.08 0.08 83 1009.4
20260505214500 55 275 5.2 13.9 0.03 0.05 0.05 84 1009.1
20260505213000 60 304 5.2 14.8 0.00 0.02 0.02 77 1008.3
20260505204500 63 232 6.1 11.3 0.00 0.02 0.02 72 1006.9
20260505203001 64 213 6.1 12.2 0.00 0.02 0.02 71 1006.7
20260505201500 65 290 6.1 13.9 0.00 0.02 0.02 68 1006.4
20260505200004 65 273 7.8 14.8 0.00 0.02 0.02 68 1006.5
20260505194500 66 227 7.0 18.2 0.00 0.02 0.02 67 1006.7
20260505193000 66 169 7.8 16.5 0.00 0.02 0.02 66 1006.6
20260505191500 68 186 7.8 16.5 0.00 0.02 0.02 65 1006.2
20260505183000 67 226 8.7 22.6 0.00 0.02 0.02 65 1006.4
20260505181500 67 273 8.7 20.9 0.00 0.02 0.02 66 1006.0
20260505180005 67 225 7.8 17.4 0.00 0.02 0.02 65 1005.9
20260505173000 67 236 7.8 23.5 0.00 0.02 0.02 65 1005.9
20260505171500 68 229 7.0 19.1 0.00 0.02 0.02 66 1005.6
20260505170006 67 270 7.8 16.5 0.00 0.02 0.02 66 1005.5
20260505164500 65 218 6.1 13.9 0.00 0.02 0.02 69 1005.5
20260505163000 64 205 5.2 11.3 0.00 0.02 0.02 69 1005.8
20260505161500 65 223 6.1 13.0 0.00 0.02 0.02 69 1005.8
20260505151459 66 265 4.3 11.3 0.00 0.02 0.02 67 1004.3
20260505124501 67 171 5.2 12.2 0.00 0.02 0.02 67 1003.6
20260505122959 65 163 4.3 9.6 0.00 0.02 0.02 72 1003.6
20260505121500 65 190 4.3 10.4 0.00 0.02 0.02 72 1003.4
20260505114500 64 167 4.3 10.4 0.00 0.02 0.02 73 1003.3
20260505112959 63 164 4.3 10.4 0.00 0.02 0.02 74 1003.3
20260505111459 63 182 5.2 8.7 0.00 0.02 0.02 74 1003.0
20260505101459 61 197 3.5 7.0 0.00 0.02 0.02 78 1002.5
20260505091459 58 113 0.9 3.5 0.00 0.02 0.02 85 1002.4
20260505090002 57 171 1.7 4.3 0.00 0.02 0.02 86 1002.6
20260505082958 57 174 0.9 1.7 0.01 0.02 0.02 89 1002.9
20260505081458 57 157 0.0 1.7 0.01 0.02 0.02 88 1003.0
20260505080002 58 189 0.9 2.6 0.01 0.02 0.02 87 1003.1
20260505074459 58 189 0.9 3.5 0.01 0.01 0.01 86 1003.3
20260505072959 59 250 1.7 4.3 0.01 0.01 0.01 86 1003.6
20260505071458 59 208 1.7 5.2 0.01 0.01 0.01 86 1004.0